STARLINK-11280, 61245

Orbit data source: Space-Track

STARLINK-11280, 61245 is a payload satellite owned by SpaceX/Seattle (US) in LEO that was launched on Wed, 25 Sep 2024 UTC via an FALCON 9 launch vehicle from the Air Force Western Test Range (AFWTR). Payload-class satellites include a variety of spacecraft equipped with specific instruments for various scientific and technological missions. These include communications satellites like Starlink; space stations such as the ISS; scientific satellites like the Hubble; Earth observation satellites from companies like Planet Labs, Umbra, and HawkEye 360; GPS; miniature CubeSats for education and research; and military/defense satellites.

Loading next visibility...
Identifier
61245, 2024-175C
Orbit
LEO
Country
Flag of USUS
Related business
Manufacturer
SpaceX/Seattle
Mission
Operational Commercial Communications
Bus & Motor
STARLINK V2MD, Unknown motor
Mass
960 kg wet, ~910 kg dry
Launch date (UTC)
2024-09-25 (1 year ago)
Launch vehicle
FALCON 9
Launch site
Air Force Western Test Range (AFWTR)
Object type
Payload
Rocket body
Debris
Shape & HBR
Box + 2 Pan, 14.5 m
Radar Cross Section
36.964 m², Large (>1 m²)

Expand to show TLE details & history
Last TLE update: 8 hours ago

TLE from 8 hours ago
0 STARLINK-11280
1 61245U 24175C   25258.56831003  .00004008  00000-0  37895-4 0  9993
2 61245  53.1602 199.4161 0001846  96.9950 263.1277 15.69736600 55860
Epoch: 2025-09-15T13:38Z
TLE epoch observation values (Epoch: 2025-09-15T13:38:21.986Z)
Latitude
-0.0001°
Longitude
0.05332°
Altitude
360.715 km
Speed
7.694 km/s
True Right ascension
13h 17m 39s
True Declination
0° 00' 00"
Sunlit
Object was in daylight at epoch
Visualization orbit readout
Latitude
Unknown
Longitude
Unknown
Altitude
Unknown
Speed
Unknown
Apparent Right ascension
Unknown
Apparent Declination
Unknown
Sunlit
N/A
Visualization observer readout
Local Sidereal Time
14:29:31
Azimuth
Unknown
Elevation
Unknown
Doppler factor
Unknown
Orbital elements
Apogee altitude
361.155 km
Perigee altitude
358.667 km
Semi-major axis
6,738.048 km
Eccentricity
0.00018
Inclination
53.1602°
RAAN
199.4161°
Arg. of periapsis
96.995°
True anomaly
263.1067°
Mean anomaly
263.1277°
Eccentric anomaly
263.1172°
Mean motion
3.92412 °/min
Orbital period
91.74 mins
BSTAR
0.000037895
Loading maneuver chart data...
Computing Atmospheric mass density...
Loading historical data...
Loading historical data...
Loading historical data...
Loading historical data...
Loading historical data...
Loading historical data...
Loading historical data...

Documentation

Showing up to 5 results
|